21-09-2022, 00:00:03,    152,    0.0,   13.5,   0.00,   0.00, 1021.9,   59.9, -999.0
21-09-2022, 00:00:13,    152,    0.0,   13.3,   0.00,   0.00, 1021.9,   59.9, -999.0
21-09-2022, 00:00:23,    152,    0.0,   13.4,   0.00,   0.00, 1021.9,   59.9, -999.0
21-09-2022, 00:00:33,    152,    0.0,   13.5,   0.00,   0.00, 1021.9,   59.9, -999.0
21-09-2022, 00:00:42,    152,    0.0,   13.4,   0.00,   0.00, 1021.9,   59.9, -999.0
21-09-2022, 00:00:53,    152,    0.0,   13.4,   0.00,   0.00, 1021.9,   59.8, -999.0
21-09-2022, 00:01:03,    152,    0.0,   13.4,   0.00,   0.00, 1021.9,   59.9, -999.0
21-09-2022, 00:01:12,    152,    0.0,   13.4,   0.00,   0.00, 1021.9,   59.8, -999.0
21-09-2022, 00:01:22,    152,    0.0,   13.5,   0.00,   0.00, 1021.9,   59.8, -999.0
21-09-2022, 00:01:33,    152,    0.0,   13.5,   0.00,   0.00, 1021.9,   59.7, -999.0
21-09-2022, 00:01:42,    152,    0.0,   13.5,   0.00,   0.00, 1021.9,   59.5, -999.0
21-09-2022, 00:01:52,    152,    0.0,   13.5,   0.00,   0.00, 1021.9,   59.5, -999.0
21-09-2022, 00:02:02,    152,    0.0,   13.5,   0.00,   0.00, 1021.9,   59.5, -999.0
21-09-2022, 00:02:12,    152,    0.0,   13.4,   0.00,   0.00, 1021.9,   59.5, -999.0
21-09-2022, 00:02:22,    152,    0.0,   13.5,   0.00,   0.00, 1021.9,   59.5, -999.0
21-09-2022, 00:02:32,    152,    0.0,   13.5,   0.00,   0.00, 1021.9,   59.5, -999.0
21-09-2022, 00:02:42,    152,    0.0,   13.5,   0.00,   0.00, 1021.9,   59.5, -999.0
21-09-2022, 00:02:52,    152,    0.0,   13.6,   0.00,   0.00, 1021.9,   59.6, -999.0
21-09-2022, 00:03:02,    152,    0.0,   13.5,   0.00,   0.00, 1021.9,   59.6, -999.0
21-09-2022, 00:03:12,    152,    0.0,   13.5,   0.00,   0.00, 1021.9,   59.5, -999.0
21-09-2022, 00:03:22,    151,    0.0,   13.5,   0.00,   0.00, 1021.9,   59.6, -999.0
21-09-2022, 00:03:32,    152,    0.0,   13.5,   0.00,   0.00, 1021.9,   59.5, -999.0
21-09-2022, 00:03:42,    152,    0.0,   13.5,   0.00,   0.00, 1021.9,   59.6, -999.0
21-09-2022, 00:03:51,    151,    0.0,   13.5,   0.00,   0.00, 1021.9,   59.3, -999.0
21-09-2022, 00:04:02,    152,    0.0,   13.5,   0.00,   0.00, 1021.9,   59.2, -999.0
21-09-2022, 00:04:12,    152,    0.0,   13.5,   0.00,   0.00, 1021.9,   59.2, -999.0
21-09-2022, 00:04:21,    152,    0.0,   13.6,   0.00,   0.00, 1021.9,   59.3, -999.0
21-09-2022, 00:04:31,    152,    0.0,   13.5,   0.00,   0.00, 1021.9,   59.2, -999.0
21-09-2022, 00:04:42,    152,    0.0,   13.5,   0.00,   0.00, 1021.9,   59.2, -999.0
21-09-2022, 00:04:51,    152,    0.0,   13.4,   0.00,   0.00, 1021.9,   59.2, -999.0
21-09-2022, 00:05:01,    152,    0.0,   13.5,   0.00,   0.00, 1021.9,   59.2, -999.0
21-09-2022, 00:05:11,    152,    0.0,   13.5,   0.00,   0.00, 1021.9,   59.4, -999.0
21-09-2022, 00:05:21,    152,    0.0,   13.5,   0.00,   0.00, 1021.9,   59.4, -999.0
21-09-2022, 00:05:31,    152,    0.0,   13.4,   0.00,   0.00, 1021.9,   59.5, -999.0
21-09-2022, 00:05:41,    152,    0.0,   13.5,   0.00,   0.00, 1021.9,   59.7, -999.0
21-09-2022, 00:05:51,    152,    0.0,   13.5,   0.00,   0.00, 1021.9,   59.4, -999.0
21-09-2022, 00:06:01,    152,    0.0,   13.5,   0.00,   0.00, 1021.9,   59.4, -999.0
21-09-2022, 00:06:11,    152,    0.0,   13.5,   0.00,   0.00, 1021.9,   59.4, -999.0
21-09-2022, 00:06:21,    152,    0.0,   13.6,   0.00,   0.00, 1021.9,   59.4, -999.0
21-09-2022, 00:06:31,    152,    0.0,   13.6,   0.00,   0.00, 1021.9,   59.4, -999.0
21-09-2022, 00:06:41,    152,    0.0,   13.5,   0.00,   0.00, 1021.9,   59.4, -999.0
21-09-2022, 00:06:51,    152,    0.0,   13.5,   0.00,   0.00, 1021.9,   59.4, -999.0
21-09-2022, 00:07:00,    152,    0.0,   13.5,   0.00,   0.00, 1021.9,   59.5, -999.0
21-09-2022, 00:07:11,    152,    0.0,   13.5,   0.00,   0.00, 1021.9,   59.6, -999.0
21-09-2022, 00:07:21,    152,    0.0,   13.6,   0.00,   0.00, 1021.9,   59.6, -999.0
21-09-2022, 00:07:30,    152,    0.0,   13.6,   0.00,   0.00, 1021.9,   59.6, -999.0
21-09-2022, 00:07:40,    152,    0.0,   13.6,   0.00,   0.00, 1021.9,   59.4, -999.0
21-09-2022, 00:07:51,    152,    0.0,   13.7,   0.00,   0.00, 1021.9,   59.5, -999.0
21-09-2022, 00:08:00,    152,    0.0,   13.7,   0.00,   0.00, 1021.9,   59.4, -999.0
21-09-2022, 00:08:10,    152,    0.0,   13.8,   0.00,   0.00, 1021.9,   59.4, -999.0
21-09-2022, 00:08:20,    152,    0.0,   13.7,   0.00,   0.00, 1021.9,   59.3, -999.0
21-09-2022, 00:08:30,    152,    0.0,   13.7,   0.00,   0.00, 1021.9,   59.3, -999.0
21-09-2022, 00:08:40,    152,    0.0,   13.6,   0.00,   0.00, 1021.9,   59.3, -999.0
21-09-2022, 00:08:50,    152,    0.0,   13.6,   0.00,   0.00, 1021.9,   59.3, -999.0
21-09-2022, 00:09:00,    152,    0.0,   13.7,   0.00,   0.00, 1021.9,   59.4, -999.0
21-09-2022, 00:09:10,    152,    0.0,   13.7,   0.00,   0.00, 1021.9,   59.3, -999.0
21-09-2022, 00:09:20,    152,    0.0,   13.5,   0.00,   0.00, 1021.9,   59.3, -999.0
21-09-2022, 00:09:30,    152,    0.0,   13.7,   0.00,   0.00, 1021.9,   59.2, -999.0
21-09-2022, 00:09:40,    152,    0.0,   13.7,   0.00,   0.00, 1021.9,   59.2, -999.0
21-09-2022, 00:09:50,    152,    0.0,   13.6,   0.00,   0.00, 1021.9,   59.2, -999.0
21-09-2022, 00:10:00,    152,    0.0,   13.6,   0.00,   0.00, 1021.9,   59.3, -999.0
21-09-2022, 00:10:09,    152,    0.0,   13.6,   0.00,   0.00, 1021.9,   59.3, -999.0
21-09-2022, 00:10:20,    152,    0.0,   13.5,   0.00,   0.00, 1021.9,   59.2, -999.0
21-09-2022, 00:10:30,    152,    0.0,   13.6,   0.00,   0.00, 1021.9,   59.4, -999.0
21-09-2022, 00:10:39,    151,    0.0,   13.5,   0.00,   0.00, 1021.9,   59.3, -999.0
21-09-2022, 00:10:49,    152,    0.0,   13.5,   0.00,   0.00, 1021.9,   59.3, -999.0
21-09-2022, 00:11:00,    152,    0.0,   13.5,   0.00,   0.00, 1021.9,   59.4, -999.0
21-09-2022, 00:11:09,    152,    0.0,   13.5,   0.00,   0.00, 1021.9,   59.3, -999.0
21-09-2022, 00:11:19,    152,    0.0,   13.5,   0.00,   0.00, 1021.9,   59.3, -999.0
21-09-2022, 00:11:29,    152,    0.0,   13.5,   0.00,   0.00, 1021.9,   59.5, -999.0
21-09-2022, 00:11:39,    152,    0.0,   13.5,   0.00,   0.00, 1021.9,   59.5, -999.0
21-09-2022, 00:11:49,    152,    0.0,   13.5,   0.00,   0.00, 1021.9,   59.3, -999.0
21-09-2022, 00:11:59,    152,    0.0,   13.5,   0.00,   0.00, 1021.9,   59.3, -999.0
21-09-2022, 00:12:09,    153,    0.0,   13.5,   0.00,   0.00, 1021.9,   59.4, -999.0
21-09-2022, 00:12:19,    152,    0.0,   13.5,   0.00,   0.00, 1021.9,   59.4, -999.0
21-09-2022, 00:12:29,    152,    0.0,   13.5,   0.00,   0.00, 1021.9,   59.4, -999.0
21-09-2022, 00:12:39,    152,    0.0,   13.5,   0.00,   0.00, 1021.9,   59.5, -999.0
21-09-2022, 00:12:49,    152,    0.0,   13.6,   0.00,   0.00, 1021.9,   59.5, -999.0
21-09-2022, 00:12:59,    152,    0.0,   13.4,   0.00,   0.00, 1021.9,   59.7, -999.0
21-09-2022, 00:13:09,    152,    0.0,   13.4,   0.00,   0.00, 1021.9,   59.7, -999.0
21-09-2022, 00:13:18,    152,    0.0,   13.4,   0.00,   0.00, 1021.9,   59.7, -999.0
21-09-2022, 00:13:29,    152,    0.0,   13.4,   0.00,   0.00, 1021.9,   59.8, -999.0
21-09-2022, 00:13:39,    152,    0.0,   13.5,   0.00,   0.00, 1021.9,   59.7, -999.0
21-09-2022, 00:13:48,    152,    0.0,   13.4,   0.00,   0.00, 1021.9,   59.7, -999.0
21-09-2022, 00:13:58,    152,    0.0,   13.5,   0.00,   0.00, 1021.9,   59.6, -999.0
21-09-2022, 00:14:09,    152,    0.0,   13.5,   0.00,   0.00, 1021.9,   59.7, -999.0
21-09-2022, 00:14:18,    152,    0.0,   13.5,   0.00,   0.00, 1021.9,   59.7, -999.0
21-09-2022, 00:14:28,    152,    0.0,   13.4,   0.00,   0.00, 1021.9,   59.6, -999.0
21-09-2022, 00:14:38,    152,    0.0,   13.4,   0.00,   0.00, 1021.9,   59.6, -999.0
21-09-2022, 00:14:48,    152,    0.0,   13.4,   0.00,   0.00, 1021.9,   59.7, -999.0
21-09-2022, 00:14:58,    152,    0.0,   13.3,   0.00,   0.00, 1021.9,   59.7, -999.0
21-09-2022, 00:15:08,    151,    0.0,   13.4,   0.00,   0.00, 1021.9,   59.7, -999.0
21-09-2022, 00:15:18,    152,    0.0,   13.4,   0.00,   0.00, 1021.9,   59.8, -999.0
21-09-2022, 00:15:28,    152,    0.0,   13.3,   0.00,   0.00, 1021.9,   59.6, -999.0
21-09-2022, 00:15:38,    152,    0.0,   13.3,   0.00,   0.00, 1021.9,   59.7, -999.0
21-09-2022, 00:15:48,    154,    0.0,   13.3,   0.00,   0.00, 1021.9,   59.9, -999.0
21-09-2022, 00:15:58,    152,    0.0,   13.3,   0.00,   0.00, 1021.9,   60.0, -999.0
21-09-2022, 00:16:08,    152,    0.0,   13.3,   0.00,   0.00, 1021.9,   59.9, -999.0
21-09-2022, 00:16:18,    152,    0.0,   13.3,   0.00,   0.00, 1021.9,   60.0, -999.0
21-09-2022, 00:16:27,    152,    0.0,   13.3,   0.00,   0.00, 1021.9,   60.1, -999.0
21-09-2022, 00:16:38,    152,    0.0,   13.3,   0.00,   0.00, 1021.9,   60.1, -999.0
21-09-2022, 00:16:48,    152,    0.0,   13.3,   0.00,   0.00, 1021.9,   60.2, -999.0
21-09-2022, 00:16:57,    152,    0.0,   13.3,   0.00,   0.00, 1021.9,   60.3, -999.0
21-09-2022, 00:17:07,    152,    0.0,   13.3,   0.00,   0.00, 1021.9,   60.1, -999.0
21-09-2022, 00:17:18,    152,    0.0,   13.3,   0.00,   0.00, 1021.9,   60.1, -999.0
21-09-2022, 00:17:27,    146,    0.0,   13.3,   0.00,   0.00, 1021.9,   60.2, -999.0
21-09-2022, 00:17:37,    152,    0.0,   13.3,   0.00,   0.00, 1021.9,   60.4, -999.0
21-09-2022, 00:17:48,    152,    0.0,   13.3,   0.00,   0.00, 1021.9,   60.4, -999.0
21-09-2022, 00:17:57,    152,    0.0,   13.3,   0.00,   0.00, 1021.9,   60.5, -999.0
21-09-2022, 00:18:07,    152,    0.0,   13.2,   0.00,   0.00, 1021.9,   60.4, -999.0
21-09-2022, 00:18:17,    152,    0.0,   13.3,   0.00,   0.00, 1021.9,   60.5, -999.0
21-09-2022, 00:18:27,    152,    0.0,   13.2,   0.00,   0.00, 1021.9,   60.5, -999.0
21-09-2022, 00:18:37,    152,    0.0,   13.3,   0.00,   0.00, 1021.9,   60.6, -999.0
21-09-2022, 00:18:47,    152,    0.0,   13.2,   0.00,   0.00, 1021.9,   60.5, -999.0
21-09-2022, 00:18:57,    152,    0.0,   13.2,   0.00,   0.00, 1021.9,   60.5, -999.0
21-09-2022, 00:19:07,    152,    0.0,   13.2,   0.00,   0.00, 1021.9,   60.5, -999.0
21-09-2022, 00:19:17,    152,    0.0,   13.2,   0.00,   0.00, 1021.9,   60.7, -999.0
21-09-2022, 00:19:27,    152,    0.0,   13.2,   0.00,   0.00, 1021.9,   60.6, -999.0
21-09-2022, 00:19:36,    152,    0.0,   13.2,   0.00,   0.00, 1021.9,   60.6, -999.0
21-09-2022, 00:19:47,    152,    0.0,   13.2,   0.00,   0.00, 1021.9,   60.7, -999.0
21-09-2022, 00:19:57,    152,    0.0,   13.2,   0.00,   0.00, 1021.9,   60.7, -999.0
21-09-2022, 00:20:06,    152,    0.0,   13.2,   0.00,   0.00, 1021.9,   60.6, -999.0
21-09-2022, 00:20:17,    152,    0.0,   13.2,   0.00,   0.00, 1021.9,   60.6, -999.0
21-09-2022, 00:20:27,    152,    0.0,   13.2,   0.00,   0.00, 1021.9,   60.7, -999.0
21-09-2022, 00:20:36,    152,    0.0,   13.2,   0.00,   0.00, 1021.9,   60.7, -999.0
21-09-2022, 00:20:46,    152,    0.0,   13.2,   0.00,   0.00, 1021.9,   60.7, -999.0
21-09-2022, 00:20:56,    152,    0.0,   13.2,   0.00,   0.00, 1021.9,   60.6, -999.0
21-09-2022, 00:21:06,    149,    0.0,   13.2,   0.00,   0.00, 1021.9,   60.6, -999.0
21-09-2022, 00:21:16,    152,    0.0,   13.3,   0.00,   0.00, 1021.9,   60.6, -999.0
21-09-2022, 00:21:26,    153,    0.0,   13.3,   0.00,   0.00, 1021.9,   60.7, -999.0
21-09-2022, 00:21:36,    152,    0.0,   13.3,   0.00,   0.00, 1021.9,   60.7, -999.0
21-09-2022, 00:21:46,    152,    0.0,   13.3,   0.00,   0.00, 1021.9,   60.7, -999.0
21-09-2022, 00:21:56,    152,    0.0,   13.3,   0.00,   0.00, 1021.9,   60.6, -999.0
21-09-2022, 00:22:06,    152,    0.0,   13.3,   0.00,   0.00, 1021.9,   60.6, -999.0
21-09-2022, 00:22:16,    152,    0.0,   13.2,   0.00,   0.00, 1021.9,   60.6, -999.0
21-09-2022, 00:22:26,    152,    0.0,   13.3,   0.00,   0.00, 1021.9,   60.5, -999.0
21-09-2022, 00:22:36,    152,    0.0,   13.2,   0.00,   0.00, 1021.9,   60.4, -999.0
21-09-2022, 00:22:46,    152,    0.0,   13.2,   0.00,   0.00, 1021.9,   60.4, -999.0
21-09-2022, 00:22:56,    152,    0.0,   13.2,   0.00,   0.00, 1021.9,   60.4, -999.0
21-09-2022, 00:23:06,    152,    0.0,   13.2,   0.00,   0.00, 1021.9,   60.3, -999.0
21-09-2022, 00:23:15,    152,    0.0,   13.3,   0.00,   0.00, 1021.9,   60.3, -999.0
21-09-2022, 00:23:26,    152,    0.0,   13.2,   0.00,   0.00, 1021.9,   60.2, -999.0
21-09-2022, 00:23:35,    152,    0.0,   13.3,   0.00,   0.00, 1021.9,   60.2, -999.0
21-09-2022, 00:23:45,    152,    0.0,   13.3,   0.00,   0.00, 1021.9,   60.1, -999.0
21-09-2022, 00:23:55,    152,    0.0,   13.3,   0.00,   0.00, 1021.9,   60.2, -999.0
21-09-2022, 00:24:05,    152,    0.0,   13.3,   0.00,   0.00, 1021.9,   60.3, -999.0
21-09-2022, 00:24:15,    152,    0.0,   13.3,   0.00,   0.00, 1021.9,   60.2, -999.0
21-09-2022, 00:24:25,    152,    0.0,   13.3,   0.00,   0.00, 1021.9,   60.2, -999.0
21-09-2022, 00:24:35,    152,    0.0,   13.3,   0.00,   0.00, 1021.9,   60.1, -999.0
21-09-2022, 00:24:45,    152,    0.0,   13.3,   0.00,   0.00, 1021.9,   60.2, -999.0
21-09-2022, 00:24:55,    152,    0.0,   13.3,   0.00,   0.00, 1021.9,   60.1, -999.0
21-09-2022, 00:25:05,    152,    0.0,   13.3,   0.00,   0.00, 1021.9,   60.0, -999.0
21-09-2022, 00:25:15,    152,    0.0,   13.3,   0.00,   0.00, 1021.9,   60.1, -999.0
21-09-2022, 00:25:25,    152,    0.0,   13.3,   0.00,   0.00, 1021.9,   60.0, -999.0
21-09-2022, 00:25:35,    152,    0.0,   13.3,   0.00,   0.00, 1021.9,   60.0, -999.0
21-09-2022, 00:25:45,    152,    0.0,   13.3,   0.00,   0.00, 1021.9,   59.9, -999.0
21-09-2022, 00:25:55,    152,    0.0,   13.2,   0.00,   0.00, 1021.9,   60.1, -999.0
21-09-2022, 00:26:05,    152,    0.0,   13.3,   0.00,   0.00, 1021.9,   60.0, -999.0
21-09-2022, 00:26:15,    152,    0.0,   13.3,   0.00,   0.00, 1021.9,   60.0, -999.0
21-09-2022, 00:26:24,    152,    0.0,   13.3,   0.00,   0.00, 1022.0,   60.1, -999.0
21-09-2022, 00:26:35,    152,    0.0,   13.3,   0.00,   0.00, 1021.9,   60.1, -999.0
21-09-2022, 00:26:44,    152,    0.0,   13.2,   0.00,   0.00, 1021.9,   60.1, -999.0
21-09-2022, 00:26:54,    152,    0.0,   13.2,   0.00,   0.00, 1021.9,   60.2, -999.0
21-09-2022, 00:27:04,    152,    0.0,   13.3,   0.00,   0.00, 1021.9,   60.2, -999.0
21-09-2022, 00:27:14,    152,    0.0,   13.3,   0.00,   0.00, 1021.9,   60.2, -999.0
21-09-2022, 00:27:24,    152,    0.0,   13.2,   0.00,   0.00, 1021.9,   60.1, -999.0
21-09-2022, 00:27:34,    152,    0.0,   13.3,   0.00,   0.00, 1021.9,   60.1, -999.0
21-09-2022, 00:27:44,    152,    0.0,   13.2,   0.00,   0.00, 1021.9,   60.1, -999.0
21-09-2022, 00:27:54,    152,    0.0,   13.3,   0.00,   0.00, 1021.9,   60.1, -999.0
21-09-2022, 00:28:04,    152,    0.0,   13.3,   0.00,   0.00, 1021.9,   60.2, -999.0
21-09-2022, 00:28:14,    152,    0.0,   13.3,   0.00,   0.00, 1021.9,   60.1, -999.0
21-09-2022, 00:28:24,    152,    0.0,   13.2,   0.00,   0.00, 1021.9,   60.1, -999.0
21-09-2022, 00:28:34,    152,    0.0,   13.3,   0.00,   0.00, 1021.9,   60.2, -999.0
21-09-2022, 00:28:44,    152,    0.0,   13.2,   0.00,   0.00, 1021.9,   60.2, -999.0
21-09-2022, 00:28:54,    152,    0.0,   13.3,   0.00,   0.00, 1021.9,   60.3, -999.0
21-09-2022, 00:29:04,    152,    0.0,   13.3,   0.00,   0.00, 1021.9,   60.4, -999.0
21-09-2022, 00:29:14,    152,    0.0,   13.2,   0.00,   0.00, 1021.9,   60.4, -999.0
21-09-2022, 00:29:24,    152,    0.0,   13.1,   0.00,   0.00, 1021.9,   60.4, -999.0
21-09-2022, 00:29:33,    152,    0.0,   13.2,   0.00,   0.00, 1021.9,   60.4, -999.0
21-09-2022, 00:29:44,    152,    0.0,   13.2,   0.00,   0.00, 1021.9,   60.5, -999.0
21-09-2022, 00:29:53,    152,    0.0,   13.2,   0.00,   0.00, 1021.9,   60.5, -999.0
21-09-2022, 00:30:03,    152,    0.0,   13.2,   0.00,   0.00, 1021.9,   60.5, -999.0
21-09-2022, 00:30:14,    152,    0.0,   13.2,   0.00,   0.00, 1021.9,   60.7, -999.0
21-09-2022, 00:30:23,    152,    0.0,   13.3,   0.00,   0.00, 1021.9,   60.8, -999.0
21-09-2022, 00:30:33,    152,    0.0,   13.2,   0.00,   0.00, 1021.9,   61.2, -999.0
21-09-2022, 00:30:43,    152,    0.0,   13.2,   0.00,   0.00, 1021.9,   61.6, -999.0
21-09-2022, 00:30:53,    152,    0.0,   13.2,   0.00,   0.00, 1021.9,   61.5, -999.0
21-09-2022, 00:31:03,    152,    0.0,   13.2,   0.00,   0.00, 1021.9,   61.5, -999.0
21-09-2022, 00:31:13,    152,    0.0,   13.2,   0.00,   0.00, 1021.9,   61.5, -999.0
21-09-2022, 00:31:23,    152,    0.0,   13.2,   0.00,   0.00, 1021.9,   61.6, -999.0
21-09-2022, 00:31:33,    152,    0.0,   13.2,   0.00,   0.00, 1021.9,   61.5, -999.0
21-09-2022, 00:31:43,    152,    0.0,   13.2,   0.00,   0.00, 1021.9,   61.4, -999.0
21-09-2022, 00:31:53,    152,    0.0,   13.2,   0.00,   0.00, 1021.9,   61.2, -999.0
21-09-2022, 00:32:03,    152,    0.0,   13.2,   0.00,   0.00, 1021.9,   61.2, -999.0
21-09-2022, 00:32:13,    152,    0.0,   13.1,   0.00,   0.00, 1021.9,   61.2, -999.0
21-09-2022, 00:32:23,    152,    0.0,   13.1,   0.00,   0.00, 1021.9,   61.3, -999.0
21-09-2022, 00:32:33,    152,    0.0,   13.2,   0.00,   0.00, 1021.9,   61.3, -999.0
21-09-2022, 00:32:42,    152,    0.0,   13.2,   0.00,   0.00, 1021.9,   61.3, -999.0
21-09-2022, 00:32:53,    152,    0.0,   13.2,   0.00,   0.00, 1021.9,   61.4, -999.0
21-09-2022, 00:33:02,    152,    0.0,   13.2,   0.00,   0.00, 1021.9,   61.6, -999.0
21-09-2022, 00:33:12,    152,    0.0,   13.2,   0.00,   0.00, 1021.9,   61.6, -999.0
21-09-2022, 00:33:23,    152,    0.0,   13.1,   0.00,   0.00, 1021.9,   61.5, -999.0
21-09-2022, 00:33:32,    153,    0.0,   13.2,   0.00,   0.00, 1021.9,   61.7, -999.0
21-09-2022, 00:33:42,    152,    0.0,   13.1,   0.00,   0.00, 1021.9,   61.7, -999.0
21-09-2022, 00:33:52,    152,    0.0,   13.1,   0.00,   0.00, 1021.9,   61.7, -999.0
21-09-2022, 00:34:02,    152,    0.0,   13.1,   0.00,   0.00, 1021.9,   61.7, -999.0
21-09-2022, 00:34:12,    152,    0.0,   13.1,   0.00,   0.00, 1021.9,   61.6, -999.0
21-09-2022, 00:34:22,    152,    0.0,   13.2,   0.00,   0.00, 1021.9,   61.6, -999.0
21-09-2022, 00:34:32,    152,    0.0,   13.2,   0.00,   0.00, 1021.9,   61.4, -999.0
21-09-2022, 00:34:42,    152,    0.0,   13.1,   0.00,   0.00, 1021.9,   61.5, -999.0
21-09-2022, 00:34:52,    152,    0.0,   13.2,   0.00,   0.00, 1021.9,   61.4, -999.0
21-09-2022, 00:35:02,    152,    0.0,   13.1,   0.00,   0.00, 1021.9,   61.4, -999.0
21-09-2022, 00:35:12,    152,    0.0,   13.1,   0.00,   0.00, 1021.9,   61.6, -999.0
21-09-2022, 00:35:22,    152,    0.0,   13.2,   0.00,   0.00, 1021.9,   61.6, -999.0
21-09-2022, 00:35:32,    152,    0.0,   13.2,   0.00,   0.00, 1021.9,   61.5, -999.0
21-09-2022, 00:35:42,    152,    0.0,   13.1,   0.00,   0.00, 1021.9,   61.6, -999.0
21-09-2022, 00:35:52,    152,    0.0,   13.1,   0.00,   0.00, 1021.9,   61.6, -999.0
21-09-2022, 00:36:02,    152,    0.0,   13.1,   0.00,   0.00, 1021.9,   61.9, -999.0
21-09-2022, 00:36:11,    152,    0.0,   13.1,   0.00,   0.00, 1021.9,   61.9, -999.0
21-09-2022, 00:36:21,    152,    0.0,   13.1,   0.00,   0.00, 1021.9,   61.6, -999.0
21-09-2022, 00:36:32,    152,    0.0,   13.1,   0.00,   0.00, 1021.9,   61.7, -999.0
21-09-2022, 00:36:41,    152,    0.0,   13.1,   0.00,   0.00, 1021.9,   61.7, -999.0
21-09-2022, 00:36:51,    152,    0.0,   13.1,   0.00,   0.00, 1021.9,   61.7, -999.0
21-09-2022, 00:37:01,    152,    0.0,   13.1,   0.00,   0.00, 1021.9,   61.6, -999.0
21-09-2022, 00:37:11,    152,    0.0,   13.1,   0.00,   0.00, 1021.9,   61.5, -999.0
21-09-2022, 00:37:21,    152,    0.0,   13.1,   0.00,   0.00, 1021.9,   61.4, -999.0
21-09-2022, 00:37:31,    152,    0.0,   13.1,   0.00,   0.00, 1021.9,   61.4, -999.0
21-09-2022, 00:37:41,    152,    0.0,   13.1,   0.00,   0.00, 1021.9,   61.3, -999.0
21-09-2022, 00:37:51,    152,    0.0,   13.1,   0.00,   0.00, 1021.9,   61.5, -999.0
21-09-2022, 00:38:01,    152,    0.0,   13.1,   0.00,   0.00, 1021.9,   61.6, -999.0
21-09-2022, 00:38:11,    152,    0.0,   13.1,   0.00,   0.00, 1021.9,   61.7, -999.0
21-09-2022, 00:38:21,    152,    0.0,   13.1,   0.00,   0.00, 1021.9,   61.8, -999.0
21-09-2022, 00:38:31,    152,    0.0,   13.1,   0.00,   0.00, 1021.9,   61.8, -999.0
21-09-2022, 00:38:41,    152,    0.0,   13.1,   0.00,   0.00, 1021.9,   61.9, -999.0
21-09-2022, 00:38:50,    152,    0.0,   13.2,   0.00,   0.00, 1021.9,   62.2, -999.0
21-09-2022, 00:39:01,    152,    0.0,   13.2,   0.00,   0.00, 1021.9,   62.2, -999.0
21-09-2022, 00:39:11,    152,    0.0,   13.0,   0.00,   0.00, 1021.9,   61.9, -999.0
21-09-2022, 00:39:20,    152,    0.0,   13.1,   0.00,   0.00, 1021.9,   61.9, -999.0
21-09-2022, 00:39:30,    152,    0.0,   13.2,   0.00,   0.00, 1021.9,   61.8, -999.0
21-09-2022, 00:39:41,    152,    0.0,   13.2,   0.00,   0.00, 1021.9,   61.9, -999.0
21-09-2022, 00:39:50,    152,    0.0,   13.2,   0.00,   0.00, 1021.9,   61.9, -999.0
21-09-2022, 00:40:00,    152,    0.0,   13.2,   0.00,   0.00, 1021.9,   61.9, -999.0
21-09-2022, 00:40:11,    152,    0.0,   13.2,   0.00,   0.00, 1021.9,   61.8, -999.0
21-09-2022, 00:40:20,    152,    0.0,   13.2,   0.00,   0.00, 1021.9,   61.8, -999.0
21-09-2022, 00:40:30,    152,    0.0,   13.2,   0.00,   0.00, 1021.9,   61.8, -999.0
21-09-2022, 00:40:40,    152,    0.0,   13.2,   0.00,   0.00, 1021.9,   61.9, -999.0
21-09-2022, 00:40:50,    152,    0.0,   13.2,   0.00,   0.00, 1021.9,   62.1, -999.0
21-09-2022, 00:41:00,    152,    0.0,   13.2,   0.00,   0.00, 1021.9,   62.4, -999.0
21-09-2022, 00:41:10,    152,    0.0,   13.2,   0.00,   0.00, 1021.9,   62.4, -999.0
21-09-2022, 00:41:20,    152,    0.0,   13.2,   0.00,   0.00, 1021.9,   62.4, -999.0
21-09-2022, 00:41:30,    152,    0.0,   13.2,   0.00,   0.00, 1021.8,   62.4, -999.0
21-09-2022, 00:41:40,    152,    0.0,   13.2,   0.00,   0.00, 1021.9,   62.3, -999.0
21-09-2022, 00:41:50,    152,    0.0,   13.2,   0.00,   0.00, 1021.9,   62.4, -999.0
21-09-2022, 00:41:59,    152,    0.0,   13.2,   0.00,   0.00, 1021.9,   62.4, -999.0
21-09-2022, 00:42:10,    152,    0.0,   13.1,   0.00,   0.00, 1021.9,   62.5, -999.0
21-09-2022, 00:42:20,    152,    0.0,   13.2,   0.00,   0.00, 1021.9,   62.3, -999.0
21-09-2022, 00:42:29,    152,    0.0,   13.2,   0.00,   0.00, 1021.9,   62.3, -999.0
21-09-2022, 00:42:39,    152,    0.0,   13.1,   0.00,   0.00, 1021.9,   62.1, -999.0
21-09-2022, 00:42:50,    152,    0.0,   13.1,   0.00,   0.00, 1021.9,   61.7, -999.0
21-09-2022, 00:42:59,    152,    0.0,   13.1,   0.00,   0.00, 1021.9,   61.8, -999.0
21-09-2022, 00:43:09,    152,    0.0,   13.1,   0.00,   0.00, 1021.9,   61.8, -999.0
21-09-2022, 00:43:19,    152,    0.0,   13.2,   0.00,   0.00, 1021.9,   61.9, -999.0
21-09-2022, 00:43:29,    152,    0.0,   13.1,   0.00,   0.00, 1021.9,   61.9, -999.0
21-09-2022, 00:43:39,    152,    0.0,   13.2,   0.00,   0.00, 1021.9,   61.9, -999.0
21-09-2022, 00:43:49,    152,    0.0,   13.2,   0.00,   0.00, 1021.9,   62.0, -999.0
21-09-2022, 00:43:59,    152,    0.0,   13.2,   0.00,   0.00, 1021.9,   62.0, -999.0
21-09-2022, 00:44:09,    152,    0.0,   13.2,   0.00,   0.00, 1021.9,   62.0, -999.0
21-09-2022, 00:44:19,    152,    0.0,   13.2,   0.00,   0.00, 1021.9,   62.1, -999.0
21-09-2022, 00:44:29,    152,    0.0,   13.2,   0.00,   0.00, 1021.9,   62.3, -999.0
21-09-2022, 00:44:39,    152,    0.0,   13.1,   0.00,   0.00, 1021.9,   62.1, -999.0
21-09-2022, 00:44:49,    152,    0.0,   13.2,   0.00,   0.00, 1021.9,   62.2, -999.0
21-09-2022, 00:44:59,    152,    0.0,   13.2,   0.00,   0.00, 1021.9,   62.2, -999.0
21-09-2022, 00:45:09,    166,    0.0,   13.1,   0.00,   0.00, 1021.9,   62.3, -999.0
21-09-2022, 00:45:19,    166,    0.0,   13.0,   0.00,   0.00, 1021.9,   62.4, -999.0
21-09-2022, 00:45:29,    166,    0.0,   13.1,   0.00,   0.00, 1021.9,   62.4, -999.0
21-09-2022, 00:45:38,    166,    0.0,   13.1,   0.00,   0.00, 1021.9,   62.6, -999.0
21-09-2022, 00:45:49,    166,    0.0,   13.1,   0.00,   0.00, 1021.9,   62.6, -999.0
21-09-2022, 00:45:59,    166,    0.0,   13.1,   0.00,   0.00, 1021.9,   62.6, -999.0
21-09-2022, 00:46:08,    165,    0.0,   13.2,   0.00,   0.00, 1021.9,   62.7, -999.0
21-09-2022, 00:46:18,    166,    0.0,   13.1,   0.00,   0.00, 1021.9,   62.8, -999.0
21-09-2022, 00:46:28,    166,    0.0,   13.1,   0.00,   0.00, 1021.9,   62.8, -999.0
21-09-2022, 00:46:38,    166,    0.0,   13.2,   0.00,   0.00, 1021.9,   62.7, -999.0